Location: �quirre
(50.4736°N, 2.2351°E)
Time: 21:33:52
(UTC+00:00)

Cosmos 2082 - Pass Details

Date: 07 August 2020
Orbit: 834 x 855 km, 71.0° (Epoch: 21 September)

Event Time Altitude Azimuth Distance (km) Brightness Sun altitude
Exits shadow 01:52:50 24° 169° (SSE) 1,683 4.8 -18.5°
Maximum altitude 01:55:52 45° 110° (ESE) 1,127 4.4 -18.3°
Drops below altitude 10° 02:01:11 10° 39° (NE) 2,454 7.4 -17.8°
Sets 02:03:43 0° 33° (NNE) 3,393 8.6 -17.6°
